Miscellaneous Local Product
Issued by NWS North Platte, NE

Home | Current Version | Previous Version | Graphics & Text | Print | Product List | Glossary On
Versions: 1 2 3 4 5 6 7 8 9 10 11 12 13 14 15 16 17 18 19 20 21 22 23 24 25 26 27 28 29 30 31 32 33 34 35 36 37 38 39 40 41 42 43 44 45 46 47 48 49 50
754
AXUS43 KLBF 230310
MISLBF


WESTERN AND NORTH CENTRAL NEBRASKA HOURLY WEATHER ROUNDUP
NATIONAL WEATHER SERVICE NORTH PLATTE NE
1000 PM CDT SAT APR 22 2017

NOTE: "FAIR" INDICATES FEW OR NO CLOUDS BELOW 12,000 FEET WITH NO
SIGNIFICANT WEATHER AND/OR OBSTRUCTIONS TO VISIBILITY.

NOTE: STATIONS NOT REPORTING VARIABLES SUCH AS SKY/WEATHER OR
PRESSURE ARE PROVIDED BY RAWS AND APRS NETWORKS AND ARE NOT UNDER
NATIONAL WEATHER SERVICE QUALITY CONTROL.

...OBSERVATIONS IN AND NEAR THE EASTERN PANHANDLE OF NEBRASKA...

CITY           SKY/WX    TMP DP  RH WIND       PRES   REMARKS
PINE RIDGE     CLEAR     54  31  41 S13       30.09F
CHADRON        CLEAR     54  31  41 S13       30.09S
ALLIANCE       CLEAR     42  30  62 S12       30.15S
SIDNEY         CLEAR     39  33  79 S12       30.21S WCI  32
CRESCENT LAKE    N/A     51  30  44 S9          N/A
$$

...OBSERVATIONS IN NORTHERN NEBRASKA AND FAR SOUTHERN SOUTH DAKOTA...

CITY           SKY/WX    TMP DP  RH WIND       PRES   REMARKS
WINNER         FAIR      56  33  42 S13       30.12S
VALENTINE      CLEAR     51  26  37 S8        30.14R
THEDFORD       CLEAR     53  25  33 S9        30.19S
AINSWORTH      CLEAR     45  36  69 S7        30.16S
O`NEILL        CLEAR     54  32  43 SE5       30.18S
ORD            CLEAR     44  35  70 SW8       30.19S
BROKEN BOW     CLEAR     40  29  64 CALM      30.20S
VALENTINE NWR    N/A     50  29  44 S6          N/A
HALSEY           N/A     54  25  32 S6          N/A
BUTTE            N/A     53  34  48 CALM        N/A
CHAMBERS         N/A     47  30  51 CALM        N/A
EWING            N/A     52  36  54 S3          N/A
$$

...OBSERVATIONS IN SOUTHWEST NEBRASKA AND FAR NORTHEAST COLORADO...

CITY           SKY/WX    TMP DP  RH WIND       PRES   REMARKS
HOLYOKE        FAIR      45  37  76 S9        30.23R
IMPERIAL       CLEAR     46  34  62 SW6       30.22R
OGALLALA       CLEAR     48  28  47 CALM      30.20R
NORTH PLATTE   CLEAR     44  30  57 E5        30.20F
MCCOOK         CLEAR     49  29  46 S5        30.22R
LEXINGTON      HAZE      49  29  45 SE6       30.23R VSB 1
STAPLETON        N/A     47  29  49 CALM        N/A
GOTHENBURG       N/A     53  27  36 CALM        N/A
CALLAWAY         N/A     47  28  48 SE6         N/A
$$

...OBSERVATIONS IN CENTRAL LINCOLN COUNTY AREA...

CITY           SKY/WX    TMP DP  RH WIND       PRES   REMARKS
N.P. AIRPORT   CLEAR     44  30  57 E5        30.20F
N.P. DOWNTOWN    N/A     54  32  43 CALM        N/A
N.P. HILLCREST   N/A     54  28  36 E3          N/A
$$

...SOME OBSERVATIONS FROM AROUND THE REGION...

CITY           SKY/WX    TMP DP  RH WIND       PRES   REMARKS
DENVER         CLEAR     39  30  70 S10       30.20R WCI  32
LIMON          CLEAR     40  33  76 S6        30.25R
ASPEN          CLOUDY    39  21  48 SW8       30.18R WCI  33
LARAMIE        CLEAR     38  28  67 SE20      30.15F WCI  28
CASPER         CLOUDY    38  31  76 S3        30.04F
CHEYENNE       CLEAR     43  30  60 S10       30.18S
SCOTTSBLUFF    CLEAR     50  29  44 S9        30.15S
GRAND ISLAND   CLEAR     50  31  48 CALM      30.23R
OMAHA          CLEAR     56  34  43 CALM      30.19R
SIOUX FALLS    PTCLDY    53  39  59 SW3       30.15R
PIERRE         CLEAR     51  36  56 CALM      30.06S
RAPID CITY     CLOUDY    48  33  56 S5        30.04S
BISMARCK       MOCLDY    43  36  76 NE23      30.11R
KANSAS CITY    CLEAR     48  33  56 N9        30.17R
HILL CITY      CLEAR     43  35  73 CALM      30.24R
WICHITA        CLEAR     50  40  68 N7        30.18R
DODGE CITY     CLEAR     45  34  65 CALM      30.25R
OKLAHOMA CITY  MOCLDY    51  41  68 NW8       30.17S
DALLAS         PTCLDY    57  45  64 N10       30.14R
AMARILLO       CLEAR     41  30  65 NE9       30.28R
$$




USA.gov is the U.S. government's official web portal to all federal, state and local government web resources and services.